Location: *
(34.6903°N, 135.5184°E)
Time: 02:04:12
(UTC+00:00)

Cosmos 2369 Rocket - Pass Details

Date: 22 September 2019
Orbit: 830 x 851 km, 71.0° (Epoch: 22 October)

Event Time Altitude Azimuth Distance (km) Brightness Sun altitude
Exits shadow 18:36:04 12° 332° (NNW) 2,345 4.4 -27.0°
Drops below altitude 10° 18:36:48 10° 338° (NNW) 2,473 4.6 -26.8°
Sets 18:40:29 0° 3° (N) 3,407 5.6 -26.1°
